Terminal Aerodrome Forecast
Issued by NWS Billings, MT

Home | Current Version | Previous Version | Graphics & Text | Print | Product List | Glossary On
Versions: 1 2 3 4 5 6 7 8 9 10 11 12 13 14 15
000
FTUS45 KBYZ 151123
TAFMLS
TAF
KMLS 151123Z 1512/1612 16011KT P6SM FEW120 BKN250
     FM151630 28017G26KT P6SM FEW100 BKN250
     FM160100 33017G27KT P6SM VCSH SCT090 OVC150=

USA.gov is the U.S. government's official web portal to all federal, state and local government web resources and services.